Location: Unspecified
(41.9031°N, 12.4386°E)
Time: 04:39:56
(UTC+02:00)

ISS - Pass Details

Date: 27 March 2020
Orbit: 417 x 423 km, 51.6° (Epoch: 29 March)

Event Time Altitude Azimuth Distance (km) Brightness Sun altitude
Rises 19:03:59 0° 286° (WNW) 2,357 2.6 -7.0°
Reaches altitude 10° 19:06:37 10° 308° (NW) 1,495 0.2 -7.5°
Maximum altitude 19:08:54 17° 351° (N) 1,143 -1.3 -7.9°
Drops below altitude 10° 19:11:12 10° 34° (NE) 1,497 -1.2 -8.3°
Enters shadow 19:13:10 - 52° (NE) 2,126 -0.6 -8.7°
